{"data":{"norad_id":61967,"intl_designator":"2024-210J","name":"STARLINK-32518","alt_names":[],"object_type":"PAYLOAD","status":"ACTIVE","operator":null,"country":"US","launch_date":"2024-11-14","launch_site_code":"AFETR","launch_vehicle":null,"mission":null,"orbit_class":"UNKNOWN","rcs_meters":null,"size_class":null,"mass_kg":null,"dimensions":null,"purposes":["comms"],"wikipedia_slug":null,"has_3d_model":false,"image_url":null,"decayed_at":null,"tle_current":{"epoch":"2026-05-25T04:00:47.382048Z","epoch_age_seconds":60924,"freshness":"FRESH","line1":"1 61967U 24210J   26145.16721507  .00020952  00000+0  76861-3 0  9993","line2":"2 61967  42.9975 101.0257 0001153 269.4790  90.5930 15.27585553 86556","mean_motion":15.27585553,"eccentricity":0.0001153,"inclination_deg":42.9975,"raan_deg":101.0257,"arg_perigee_deg":269.479,"mean_anomaly_deg":90.593,"bstar":0.00076861,"rev_number":8655,"period_min":94.266406040042,"perigee_km":482.24137557063,"apogee_km":483.82356125005,"semimajor_km":6861.1694684103,"source":"CELESTRAK","updated_at":"2026-05-25T13:38:19.492789Z"}}}